Tracking 19634 objects as of 21-May-2019
HD Live streaming from Space Station
objects crossing your sky now

EQUATOR S

Track EQUATOR S now!
EQUATOR S is classified as:


NORAD ID: 25068
Int'l Code: 1997-075B
Perigee: 727.8 km
Apogee: 66,918.8 km
Inclination: 6.4 °
Period: 1,336.6 minutes
Semi major axis: 40194 km
RCS: 1.1159 m2 (large)
Launch date: December 2, 1997
Source: Germany (GER)
Launch site: FRENCH GUIANA (FRGUI)
aabbcc
Your satellite tracking list
Your tracking list is empty




NASA's NSSDC Master Catalog

Two Line Element Set (TLE):
1 25068U 97075B   19141.43974322 -.00000372  00000-0 -71161-3 0  9992
2 25068   6.3526 309.2699 8233876 251.4091  12.7656  1.07734914 84580
Source of the keplerian elements: AFSPC